ONEWEB-0647, 56079

Orbit data source: Space-Track

ONEWEB-0647, 56079 is a payload satellite owned by One Web (NAA) (UK) in LEO that was launched on Sun, 26 Mar 2023 UTC via a LVM3 launch vehicle from the Sirharikota (SRI). Payloads include a variety of satellites, spacecraft, and rockets equipped with specific instruments for various scientific and technological missions. These include communications satellites like Starlink; space stations such as the ISS; scientific satellites like the Hubble; Earth observation satellites from companies like Planet Labs, Umbra, and HawkEye 360; GPS; miniature CubeSats for education and research; and military/defense satellites.

Loading next visibility...
ONEWEB-0647 details
Identifier
56079, 2023-043AK
Orbit
LEO
Last TLE update1 day ago
Origin
Flag of UKOne Web (NAA) (UK)
ManufacturerOne Web
MissionOperational Commercial Communications
Bus & MotorARROW, Unknown motor
Mass148 kg wet, ~140 kg dry
Launch date (UTC)
2023-03-26 (2 years ago)
Launch vehicle
LVM3
Launch site
Sirharikota (SRI)
Object type
Payload
Rocket body
Debris
Shape & HBRTrap Box + 2 Pan, 5 m
Radar Cross Section2.032 m², Medium (>0.1 m² and < 1m²)

Expand to show TLE details & history

TLE from 1 day ago
0 ONEWEB-0647
1 56079U 23043AK  25014.49021344  .00000136  00000-0  32732-3 0  9998
2 56079  87.9077   2.5108 0001555  87.0291 273.1017 13.15548089 88221
Epoch: 2025-01-14T11:45Z
Definitive object data (Epoch: 2025-01-14T11:45:54.441Z)
Latitude-0.00003°
Longitude71.8378°
Altitude1,204.604 km
Speed7.252 km/s
True Right ascension00h 10m 02s
True Declination0° 00' 00"
Sunlit
Object was in daylight at TLE epoch
Visualization TLE readout
Latitude-25.81581°
Longitude70.60484°
Altitude1,211.792 km
Speed7.247 km/s
Apparent Right ascension01h 34m 06s
Apparent Declination-35° 03' 43"
Sunlit
Object is in daylight
Visualization observer readout
Local Sidereal Time15:41:42
Azimuth89.298° E
Elevation-64.37°
Doppler factor1
Orbital elements
Apogee altitude1,200.063 km
Perigee altitude1,197.706 km
Semi-major axis7,577.021 km
Eccentricity0.0001555
Inclination87.9077°
RAAN2.5108°
Arg. of periapsis87.0291°
True anomaly273.08391°
Mean anomaly273.1017°
Eccentric anomaly273.0928°
Mean motion3.29075 °/min
BSTAR0.00032732
Orbital period109.4 mins
Loading maneuver chart data...
Loading historical data...
Loading historical data...
Loading historical data...
Loading historical data...
Loading historical data...
Loading historical data...
Loading historical data...

ONEWEB-0647 Visibility forecast

Observer location: undefined°, undefined

Span
Click to sort rows by Start time (UTC) header in descending order
Start Az.
Max El. time (UTC)
Max El. Az.
Max El.
End time (UTC)
End Az.
12 mins2025-01-15 22:32:55.361Z144.197° SSE2025-01-15 22:38:55.361Z86.15° E31.508°2025-01-15 22:44:55.361Z19.619° NNE
11 mins2025-01-16 00:23:55.361Z220.893° SW2025-01-16 00:28:55.361Z282.44° WNW31.48°2025-01-16 00:34:55.361Z343.198° N
10 mins2025-01-16 10:01:55.361Z31.978° NE2025-01-16 10:05:55.361Z75.709° E25.945°2025-01-16 10:11:55.361Z135.173° SSE
11 mins2025-01-16 11:50:55.361Z342.36° N2025-01-16 11:55:55.361Z276.535° WNW37.16°2025-01-16 12:01:55.361Z207.376° SW
|